EN

Hourly Weather Abomey-Calavi

Today, 25 November, Wednesday

Time Temperature Precipitation Wind Pressure Humidity
00:00 +28°C° 0 mm 3 mps 757 mmHg 87%
01:00 +28°C° 0.2 mm 3 mps 757 mmHg 87%
02:00 +28°C° 0.2 mm 3 mps 756 mmHg 87%
03:00 +28°C° 0.2 mm 3 mps 756 mmHg 88%
04:00 +27°C° 0.6 mm 3 mps 756 mmHg 88%
05:00 +27°C° 0.6 mm 3 mps 757 mmHg 89%
06:00 +27°C° 0.6 mm 2 mps 757 mmHg 89%
07:00 +29°C° 0.1 mm 3 mps 757 mmHg 81%
08:00 +31°C° 0.1 mm 3 mps 757 mmHg 73%
09:00 +33°C° 0.1 mm 3 mps 758 mmHg 65%
10:00 +35°C° 0 mm 3 mps 757 mmHg 59%
11:00 +36°C° 0 mm 3 mps 757 mmHg 53%
12:00 +37°C° 0 mm 3 mps 756 mmHg 47%
13:00 +36°C° 0.1 mm 4 mps 756 mmHg 52%
14:00 +35°C° 0.1 mm 4 mps 755 mmHg 56%
15:00 +34°C° 0.1 mm 5 mps 754 mmHg 61%
16:00 +33°C° 0 mm 5 mps 755 mmHg 66%
17:00 +32°C° 0 mm 5 mps 755 mmHg 71%
18:00 +29°C° 0 mm 5 mps 755 mmHg 76%
19:00 +29°C° 0 mm 5 mps 756 mmHg 78%
20:00 +29°C° 0 mm 5 mps 756 mmHg 79%
21:00 +29°C° 0 mm 5 mps 757 mmHg 81%
22:00 +29°C° 0 mm 5 mps 757 mmHg 82%
23:00 +28°C° 0 mm 5 mps 756 mmHg 83%

Tomorrow, 26 November, Thursday

Time Temperature Precipitation Wind Pressure Humidity
00:00 +28°C° 0 mm 5 mps 756 mmHg 85%
01:00 +28°C° 0 mm 4 mps 756 mmHg 86%
02:00 +28°C° 0 mm 4 mps 756 mmHg 87%
03:00 +28°C° 0 mm 4 mps 756 mmHg 88%
04:00 +28°C° 0 mm 3 mps 756 mmHg 88%
05:00 +28°C° 0 mm 3 mps 756 mmHg 89%
06:00 +27°C° 0 mm 3 mps 757 mmHg 89%
07:00 +28°C° 0 mm 3 mps 757 mmHg 84%
08:00 +30°C° 0 mm 4 mps 757 mmHg 78%
09:00 +32°C° 0 mm 4 mps 758 mmHg 73%
10:00 +32°C° 0 mm 4 mps 757 mmHg 70%
11:00 +33°C° 0 mm 4 mps 756 mmHg 67%
12:00 +34°C° 0 mm 4 mps 756 mmHg 63%
13:00 +34°C° 0.4 mm 4 mps 755 mmHg 64%
14:00 +34°C° 0.4 mm 5 mps 755 mmHg 65%
15:00 +33°C° 0.4 mm 5 mps 754 mmHg 66%
16:00 +32°C° 0 mm 5 mps 754 mmHg 71%
17:00 +30°C° 0 mm 4 mps 755 mmHg 76%
18:00 +29°C° 0 mm 4 mps 755 mmHg 80%
19:00 +29°C° 0 mm 4 mps 756 mmHg 81%
20:00 +29°C° 0 mm 4 mps 756 mmHg 83%
21:00 +29°C° 0 mm 4 mps 757 mmHg 84%
22:00 +29°C° 0.2 mm 4 mps 757 mmHg 84%
23:00 +29°C° 0.2 mm 4 mps 757 mmHg 84%

Day after tomorrow, 27 November, Friday

Time Temperature Precipitation Wind Pressure Humidity
00:00 +29°C° 0.2 mm 4 mps 757 mmHg 85%
01:00 +28°C° 0 mm 5 mps 756 mmHg 85%
02:00 +28°C° 0 mm 5 mps 756 mmHg 86%
03:00 +28°C° 0 mm 5 mps 756 mmHg 87%
04:00 +28°C° 0.1 mm 4 mps 756 mmHg 87%
05:00 +28°C° 0.1 mm 4 mps 756 mmHg 88%
06:00 +28°C° 0.1 mm 4 mps 756 mmHg 88%
07:00 +29°C° 0.3 mm 4 mps 757 mmHg 83%
08:00 +30°C° 0.3 mm 4 mps 757 mmHg 77%
09:00 +32°C° 0.3 mm 4 mps 758 mmHg 72%
10:00 +33°C° 0.1 mm 5 mps 757 mmHg 68%
11:00 +34°C° 0.1 mm 5 mps 757 mmHg 64%
12:00 +35°C° 0.1 mm 5 mps 756 mmHg 59%
13:00 +34°C° 0.6 mm 5 mps 756 mmHg 62%
14:00 +34°C° 0.6 mm 5 mps 755 mmHg 64%
15:00 +33°C° 0.6 mm 5 mps 755 mmHg 66%
16:00 +32°C° 0.2 mm 5 mps 755 mmHg 71%
17:00 +30°C° 0.2 mm 5 mps 756 mmHg 75%
18:00 +29°C° 0.2 mm 5 mps 756 mmHg 80%
19:00 +29°C° 0 mm 5 mps 757 mmHg 81%
20:00 +29°C° 0 mm 4 mps 757 mmHg 82%
21:00 +28°C° 0 mm 4 mps 758 mmHg 84%
22:00 +28°C° 0 mm 4 mps 758 mmHg 85%
23:00 +28°C° 0 mm 4 mps 758 mmHg 86%

28 November, Saturday

Time Temperature Precipitation Wind Pressure Humidity
00:00 +28°C° 0 mm 4 mps 758 mmHg 87%
01:00 +28°C° 0 mm 4 mps 757 mmHg 88%
02:00 +28°C° 0 mm 3 mps 757 mmHg 88%
03:00 +27°C° 0 mm 3 mps 757 mmHg 89%
04:00 +27°C° 0 mm 3 mps 757 mmHg 89%
05:00 +27°C° 0 mm 3 mps 757 mmHg 90%
06:00 +27°C° 0 mm 2 mps 757 mmHg 90%
07:00 +28°C° 0.1 mm 3 mps 758 mmHg 85%
08:00 +29°C° 0.1 mm 3 mps 758 mmHg 80%
09:00 +30°C° 0.1 mm 3 mps 759 mmHg 75%
10:00 +31°C° 0.1 mm 3 mps 758 mmHg 72%
11:00 +32°C° 0.1 mm 4 mps 758 mmHg 70%
12:00 +33°C° 0.1 mm 4 mps 757 mmHg 67%
13:00 +33°C° 0.2 mm 4 mps 757 mmHg 66%
14:00 +33°C° 0.2 mm 4 mps 756 mmHg 65%
15:00 +33°C° 0.2 mm 4 mps 756 mmHg 64%
16:00 +32°C° 0.1 mm 4 mps 756 mmHg 70%
17:00 +30°C° 0.1 mm 4 mps 756 mmHg 75%
18:00 +29°C° 0.1 mm 3 mps 757 mmHg 81%
19:00 +28°C° 0 mm 3 mps 757 mmHg 83%
20:00 +28°C° 0 mm 3 mps 758 mmHg 85%
21:00 +28°C° 0 mm 3 mps 758 mmHg 87%
22:00 +28°C° 0.4 mm 3 mps 758 mmHg 88%
23:00 +28°C° 0.4 mm 3 mps 758 mmHg 89%

29 November, Sunday

Time Temperature Precipitation Wind Pressure Humidity
00:00 +27°C° 0.4 mm 3 mps 758 mmHg 91%
01:00 +27°C° 0.5 mm 3 mps 757 mmHg 91%
02:00 +27°C° 0.5 mm 3 mps 757 mmHg 92%
03:00 +27°C° 0.5 mm 3 mps 756 mmHg 92%
04:00 +27°C° 0.1 mm 3 mps 757 mmHg 92%
05:00 +27°C° 0.1 mm 3 mps 757 mmHg 92%
06:00 +27°C° 0.1 mm 3 mps 757 mmHg 92%
07:00 +28°C° 0 mm 3 mps 757 mmHg 85%
08:00 +30°C° 0 mm 3 mps 758 mmHg 78%
09:00 +31°C° 0 mm 3 mps 758 mmHg 71%
10:00 +33°C° 0 mm 3 mps 757 mmHg 68%
11:00 +34°C° 0 mm 3 mps 757 mmHg 65%
12:00 +34°C° 0 mm 3 mps 756 mmHg 62%
13:00 +34°C° 0.3 mm 3 mps 756 mmHg 64%
14:00 +33°C° 0.3 mm 4 mps 755 mmHg 66%
15:00 +33°C° 0.3 mm 4 mps 755 mmHg 68%
16:00 +32°C° 0.2 mm 4 mps 755 mmHg 73%
17:00 +30°C° 0.2 mm 4 mps 755 mmHg 78%
18:00 +29°C° 0.2 mm 4 mps 756 mmHg 83%
19:00 +29°C° 0 mm 4 mps 756 mmHg 84%
20:00 +28°C° 0 mm 4 mps 757 mmHg 85%
21:00 +28°C° 0 mm 4 mps 757 mmHg 86%
22:00 +28°C° 0 mm 4 mps 757 mmHg 87%
23:00 +28°C° 0 mm 4 mps 757 mmHg 87%

30 November, Monday

Time Temperature Precipitation Wind Pressure Humidity
00:00 +28°C° 0 mm 4 mps 757 mmHg 88%
01:00 +28°C° 0 mm 3 mps 756 mmHg 88%
02:00 +27°C° 0 mm 3 mps 756 mmHg 89%
03:00 +27°C° 0 mm 3 mps 756 mmHg 89%
04:00 +27°C° 0 mm 3 mps 756 mmHg 89%
05:00 +27°C° 0 mm 3 mps 757 mmHg 89%
06:00 +27°C° 0 mm 2 mps 757 mmHg 90%
07:00 +28°C° 0 mm 2 mps 757 mmHg 83%
08:00 +30°C° 0 mm 2 mps 758 mmHg 76%
09:00 +31°C° 0 mm 2 mps 758 mmHg 69%
10:00 +32°C° 0 mm 2 mps 758 mmHg 68%
11:00 +33°C° 0 mm 3 mps 757 mmHg 66%
12:00 +34°C° 0 mm 3 mps 757 mmHg 64%
13:00 +33°C° 0.1 mm 3 mps 756 mmHg 64%
14:00 +33°C° 0.1 mm 3 mps 756 mmHg 65%
15:00 +33°C° 0.1 mm 3 mps 755 mmHg 65%
16:00 +31°C° 0.1 mm 3 mps 755 mmHg 71%
17:00 +30°C° 0.1 mm 3 mps 756 mmHg 76%
18:00 +29°C° 0.1 mm 3 mps 756 mmHg 81%
19:00 +28°C° 0 mm 3 mps 757 mmHg 82%
20:00 +28°C° 0 mm 3 mps 757 mmHg 84%
21:00 +28°C° 0 mm 3 mps 758 mmHg 85%
22:00 +28°C° 0 mm 3 mps 757 mmHg 86%
23:00 +28°C° 0 mm 3 mps 757 mmHg 87%
Show more